User: anonymous   Login
Location: Byszew
(52.1813°N, 19.2693°E)
Time: 08:31:11
(UTC+00:00)
Language:

ONEWEB-0414 - Orbit

View from above orbital plane
View from above orbital plane
View from above satellite
View from above satellite

Ground track
Ground track

The orbit data is extracted from the following two-line orbital elements,

1 50491U 21132Y   22330.00001157 -.01056067  00000-0 -17827+0 0  9993
2 50491  87.2266 238.2755 0005170 108.2207 165.3067 14.72558374  1305
Epoch (UTC): 26 November 2022 00:00:01
Eccentricity: 0.0005170
inclination: 87.2266°
perigee height: 649 km
apogee height: 656 km
right ascension of ascending node: 238.2755°
argument of perigee: 108.2207°
revolutions per day: 14.72558374
mean anomaly at epoch: 165.3067°
orbit number at epoch: 130

The dashed part of the orbit path shows where the satellite is in the earth's shadow,  

DLR